This is the latest recevied weather packets stored in our database for station/object K5NWZ. If no packets are shown the sender has not sent any weather packets the latest 10 day(s).
| Time | Temp. | Humidity | Pressure | Rain* | Wind** | Luminosity | Snow |
|---|---|---|---|---|---|---|---|
| 1787545150 | 24.44° C | 48% | 1029.4 hPa | 0 mm | - | 0 W/m² | - |
| 1787544847 | 24.44° C | 49% | 1029.6 hPa | 0 mm | - | 0 W/m² | - |
| 1787544542 | 24.44° C | 49% | 1029.6 hPa | 0 mm | - | 0 W/m² | - |
| 1787544238 | 24.44° C | 49% | 1030.1 hPa | 0 mm | - | 0 W/m² | - |
| 1787543932 | 23.89° C | 51% | 1029.9 hPa | 0 mm | - | 0 W/m² | - |
| 1787543629 | 23.89° C | 50% | 1029.9 hPa | 0 mm | - | 0 W/m² | - |
| 1787543324 | 23.89° C | 50% | 1029.9 hPa | 0 mm | - | 0 W/m² | - |
| 1787543020 | 23.89° C | 51% | 1029.9 hPa | 0 mm | - | 0 W/m² | - |
| 1787542714 | 23.89° C | 52% | 1029.9 hPa | 0 mm | - | 0 W/m² | - |
| 1787542410 | 23.89° C | 52% | 1029.8 hPa | 0 mm | - | 0 W/m² | - |
| 1787542106 | 23.89° C | 53% | 1029.9 hPa | 0 mm | - | 0 W/m² | - |
| 1787541802 | 23.89° C | 53% | 1029.9 hPa | 0 mm | - | 0 W/m² | - |
| 1787541498 | 23.89° C | 53% | 1029.9 hPa | 0 mm | - | 0 W/m² | - |
| 1787541195 | 23.89° C | 52% | 1029.9 hPa | 0 mm | - | 0 W/m² | - |
| 1787540890 | 23.33° C | 56% | 1029.7 hPa | 0 mm | - | 0 W/m² | - |
| 1787540587 | 23.33° C | 57% | 1029.7 hPa | 0 mm | - | 0 W/m² | - |
| 1787540284 | 23.89° C | 55% | 1029.7 hPa | 0 mm | - | 0 W/m² | - |
| 1787539981 | 23.89° C | 54% | 1029.7 hPa | 0 mm | - | 0 W/m² | - |
| 1787539676 | 23.89° C | 54% | 1029.5 hPa | 0 mm | - | 0 W/m² | - |
| 1787539375 | 23.89° C | 53% | 1029.3 hPa | 0 mm | - | 0 W/m² | - |
| 1787539070 | 24.44° C | 52% | 1029 hPa | 0 mm | - | 0 W/m² | - |
| 1787538767 | 23.89° C | 54% | 1028.7 hPa | 0 mm | - | 0 W/m² | - |
| 1787538463 | 23.89° C | 54% | 1028.9 hPa | 0 mm | - | 0 W/m² | - |
| 1787538158 | 24.44° C | 52% | 1028.8 hPa | 0 mm | - | 0 W/m² | - |
| 1787537855 | 23.89° C | 54% | 1028.8 hPa | 0 mm | - | 0 W/m² | - |
* Rain latest hour (hover to see other rain measurements)
** Current wind speed in m/s (hover to see current wind gust speed)